Ana Sayfa
METAR-TAF:

METAR-TAF

Havaalanları :

Elkhart-Morton County Airport

Elkhart, Kansas, Amerika Birleşik Devletleri

Enlem: 37-00N, Boylam: 101-54W, yükseklik: 1099 m

Güncel hava durumu gözlemi

Rapor saat 02:55 UTC de 27 dakika önce yapıldı.
Rüzgar güney/güneydoğudan 10 kt
Sıcaklık 14°C
Nem 31%
Basınç 1008 hPa
Görüş mesafesi: 16.1 km
Açık gökyüzü

METAR: KEHA 180255Z AUTO 16010KT 10SM CLR 14/M03 A2978 RMK AO2 T01371029

Saat: 22:22 (03:22 UTC)


TAF: eksik

4.000'den fazla havaalanı için hava durumu gözlemleri ve tahminleri (METAR ve TAF raporları).

Kullanılabilir istasyonlar harita üzerinde sarı ve kırmızı noktalarla gösterilir.

İstasyonun adını görmek için fareyi noktanın üzerinde gezdirin.

Sonrasında hava gözlem ve tahminlerini görmek için tıklayın.

Haritayı değiştirmek için: yaklaştırmak için siyah artı işaretli yeşil düğmeye ve uzaklaştırmak için de eksi işaretli düğmeye hızla tıklayın; bitişik haritalar için yeşil okları kullanın.


METAR-TAF: